timestamp,wind_dir_avg,wind_spd_avg,wind_spd_max_dir,wind_spd_gust,battery_voltage,lat,long
2022-09-30 00:04:00+00:00,258.0,9.94,260.0,10.74,12.49,47.59359,-54.27349
2022-09-30 00:14:01+00:00,275.0,7.77,274.0,10.12,12.49,47.59359,-54.27349
2022-09-30 00:24:01+00:00,254.0,6.61,260.0,9.61,12.49,47.59359,-54.27349
2022-09-30 00:34:01+00:00,257.0,6.82,255.0,9.53,12.49,47.59359,-54.27349
2022-09-30 00:44:01+00:00,262.0,7.23,264.0,9.67,12.49,47.59359,-54.27349
2022-09-30 00:54:01+00:00,253.0,4.44,256.0,5.92,12.49,47.59359,-54.27349
2022-09-30 01:04:01+00:00,242.0,4.26,241.0,4.8,12.49,47.59359,-54.27349
2022-09-30 01:14:01+00:00,258.0,4.8,257.0,5.65,12.49,47.59359,-54.27349
2022-09-30 01:24:01+00:00,261.0,5.31,261.0,9.66,12.49,47.59359,-54.27349
2022-09-30 01:34:01+00:00,266.0,4.96,266.0,7.78,12.49,47.59359,-54.27349
2022-09-30 01:44:01+00:00,252.0,6.49,257.0,8.86,12.49,47.59359,-54.27349
2022-09-30 01:54:01+00:00,259.0,7.69,265.0,10.28,12.49,47.59359,-54.27349
2022-09-30 02:04:01+00:00,248.0,4.84,257.0,8.26,12.49,47.59359,-54.27349
2022-09-30 02:14:00+00:00,240.0,5.62,248.0,9.2,12.49,47.59359,-54.27349
2022-09-30 02:24:00+00:00,232.0,4.22,236.0,4.88,12.49,47.59359,-54.27349
2022-09-30 02:34:00+00:00,267.0,5.64,260.0,9.68,12.49,47.59359,-54.27349
2022-09-30 02:44:00+00:00,281.0,4.66,277.0,6.14,12.49,47.59359,-54.27349
2022-09-30 02:54:00+00:00,273.0,8.96,269.0,10.6,12.49,47.59359,-54.27349
2022-09-30 03:04:00+00:00,272.0,8.8,272.0,10.47,12.49,47.59359,-54.27349
2022-09-30 03:14:00+00:00,269.0,8.45,271.0,10.58,12.49,47.59359,-54.27349
2022-09-30 03:24:00+00:00,273.0,9.26,276.0,10.52,12.49,47.59359,-54.27349
2022-09-30 03:34:00+00:00,268.0,6.23,271.0,9.18,12.49,47.59359,-54.27349
2022-09-30 03:44:00+00:00,273.0,7.86,268.0,9.67,12.49,47.59359,-54.27349
2022-09-30 03:54:00+00:00,272.0,6.51,275.0,9.92,12.49,47.59359,-54.27349
2022-09-30 04:04:00+00:00,266.0,4.32,265.0,5.62,12.49,47.59359,-54.27349
2022-09-30 04:14:00+00:00,268.0,3.89,266.0,4.57,12.49,47.59359,-54.27349
2022-09-30 04:24:00+00:00,261.0,3.62,257.0,4.52,12.49,47.59359,-54.27349
2022-09-30 04:34:00+00:00,277.0,4.07,281.0,4.93,12.49,47.59359,-54.27349
2022-09-30 04:44:00+00:00,292.0,4.49,290.0,5.74,12.49,47.59359,-54.27349
2022-09-30 04:54:00+00:00,300.0,6.58,289.0,9.55,12.49,47.59359,-54.27349
2022-09-30 05:04:00+00:00,295.0,8.15,290.0,10.27,12.49,47.59359,-54.27349
2022-09-30 05:14:01+00:00,305.0,8.17,305.0,10.07,12.49,47.59359,-54.27349
2022-09-30 05:24:01+00:00,310.0,5.91,304.0,7.67,12.49,47.59359,-54.27349
2022-09-30 05:34:01+00:00,298.0,5.0,300.0,5.72,12.49,47.59359,-54.27349
2022-09-30 05:44:01+00:00,300.0,4.84,297.0,7.36,12.49,47.59359,-54.27349
2022-09-30 05:54:01+00:00,317.0,5.64,321.0,6.77,12.49,47.59359,-54.27349
2022-09-30 06:04:01+00:00,307.0,4.42,309.0,5.88,12.49,47.59359,-54.27349
2022-09-30 06:14:01+00:00,289.0,4.34,290.0,4.83,12.41,47.59359,-54.27349
2022-09-30 06:24:01+00:00,300.0,4.16,306.0,5.72,12.41,47.59359,-54.27349
2022-09-30 06:34:01+00:00,307.0,4.47,305.0,6.16,12.41,47.59359,-54.27349
2022-09-30 06:44:01+00:00,311.0,6.04,299.0,7.63,12.41,47.59359,-54.27349
2022-09-30 06:54:01+00:00,305.0,6.5,289.0,10.11,12.41,47.59359,-54.27349
2022-09-30 07:04:01+00:00,311.0,4.97,310.0,6.01,12.41,47.59359,-54.27349
2022-09-30 07:14:00+00:00,300.0,5.89,281.0,8.65,12.41,47.59359,-54.27349
2022-09-30 07:24:00+00:00,295.0,4.3,305.0,5.1,12.41,47.59359,-54.27349
2022-09-30 07:34:00+00:00,318.0,5.21,314.0,6.1,12.41,47.59359,-54.27349
2022-09-30 07:44:00+00:00,314.0,3.72,317.0,4.5,12.41,47.59359,-54.27349
2022-09-30 07:54:00+00:00,313.0,4.56,313.0,5.34,12.41,47.59359,-54.27349
2022-09-30 08:04:00+00:00,329.0,4.58,319.0,5.13,12.41,47.59359,-54.27349
2022-09-30 08:14:01+00:00,325.0,4.53,329.0,5.46,12.41,47.59359,-54.27349
2022-09-30 08:24:01+00:00,324.0,6.14,321.0,6.83,12.41,47.59359,-54.27349
2022-09-30 08:34:01+00:00,330.0,6.48,324.0,7.66,12.41,47.59359,-54.27349
2022-09-30 08:44:01+00:00,322.0,6.09,326.0,7.0,12.41,47.59359,-54.27349
2022-09-30 08:54:01+00:00,324.0,6.58,327.0,7.92,12.41,47.59359,-54.27349
2022-09-30 09:04:01+00:00,324.0,7.28,323.0,8.3,12.41,47.59359,-54.27349
2022-09-30 09:14:01+00:00,329.0,7.51,331.0,8.82,12.33,47.59359,-54.27349
2022-09-30 09:24:01+00:00,329.0,6.35,334.0,7.23,12.33,47.59359,-54.27349
2022-09-30 09:34:01+00:00,326.0,6.59,327.0,7.97,12.33,47.59359,-54.27349
2022-09-30 09:44:01+00:00,324.0,8.06,326.0,9.0,12.33,47.59359,-54.27349
2022-09-30 09:54:01+00:00,327.0,8.76,330.0,10.39,12.33,47.59359,-54.27349
2022-09-30 10:04:01+00:00,327.0,10.17,324.0,11.46,12.33,47.59359,-54.27349
2022-09-30 10:14:01+00:00,319.0,9.31,322.0,10.81,12.65,47.59359,-54.27349
2022-09-30 10:24:01+00:00,322.0,9.9,322.0,11.83,12.65,47.59359,-54.27349
2022-09-30 10:34:01+00:00,324.0,10.01,322.0,11.6,12.65,47.59359,-54.27349
2022-09-30 10:44:01+00:00,328.0,8.65,324.0,10.18,12.65,47.59359,-54.27349
2022-09-30 10:54:01+00:00,329.0,10.52,333.0,11.96,12.65,47.59359,-54.27349
2022-09-30 11:04:01+00:00,329.0,9.18,326.0,10.54,12.65,47.59359,-54.27349
2022-09-30 11:14:01+00:00,329.0,7.71,328.0,9.9,13.6,47.59359,-54.27349
2022-09-30 11:24:01+00:00,334.0,6.69,330.0,7.5,13.6,47.59359,-54.27349
2022-09-30 11:34:01+00:00,340.0,5.66,340.0,6.68,13.6,47.59359,-54.27349
2022-09-30 11:44:01+00:00,28.0,3.69,19.0,4.69,13.6,47.59359,-54.27349
2022-09-30 11:54:01+00:00,88.0,1.33,83.0,1.78,13.6,47.59359,-54.27349
2022-09-30 12:04:01+00:00,337.0,1.31,328.0,2.11,13.6,47.59359,-54.27349
2022-09-30 12:14:00+00:00,329.0,2.51,330.0,3.49,14.4,47.59359,-54.27349
2022-09-30 12:24:00+00:00,322.0,2.66,322.0,3.24,14.4,47.59359,-54.27349
2022-09-30 12:34:00+00:00,343.0,3.15,329.0,3.94,14.4,47.59359,-54.27349
2022-09-30 12:44:00+00:00,345.0,3.24,330.0,3.88,14.4,47.59359,-54.27349
2022-09-30 12:54:00+00:00,326.0,3.51,327.0,4.0,14.4,47.59359,-54.27349
2022-09-30 13:04:00+00:00,317.0,3.83,316.0,4.14,14.4,47.59359,-54.27349
2022-09-30 13:14:00+00:00,318.0,4.78,320.0,5.33,14.4,47.59359,-54.27349
2022-09-30 13:24:00+00:00,328.0,4.93,331.0,5.66,14.4,47.59359,-54.27349
2022-09-30 13:34:00+00:00,325.0,4.16,325.0,4.66,14.4,47.59359,-54.27349
2022-09-30 13:44:00+00:00,345.0,3.5,343.0,4.05,14.4,47.59359,-54.27349
2022-09-30 13:54:00+00:00,350.0,3.39,351.0,4.07,14.4,47.59359,-54.27349
2022-09-30 14:04:00+00:00,337.0,2.92,340.0,3.57,14.4,47.59359,-54.27349
2022-09-30 14:14:01+00:00,333.0,2.62,325.0,3.15,14.48,47.59359,-54.27349
2022-09-30 14:24:01+00:00,294.0,2.2,288.0,2.66,14.48,47.59359,-54.27349
2022-09-30 14:34:01+00:00,323.0,2.8,323.0,3.08,14.48,47.59359,-54.27349
2022-09-30 14:44:01+00:00,231.0,1.48,235.0,2.34,14.48,47.59359,-54.27349
2022-09-30 14:54:01+00:00,238.0,3.16,237.0,3.46,14.48,47.59359,-54.27349
2022-09-30 15:04:01+00:00,261.0,2.16,255.0,2.41,14.48,47.59359,-54.27349
2022-09-30 15:14:01+00:00,252.0,2.17,252.0,2.5,14.48,47.59359,-54.27349
2022-09-30 15:24:01+00:00,251.0,2.43,253.0,2.62,14.48,47.59359,-54.27349
2022-09-30 15:34:01+00:00,237.0,2.82,236.0,3.09,14.48,47.59359,-54.27349
2022-09-30 15:44:01+00:00,206.0,3.8,202.0,4.88,14.48,47.59359,-54.27349
2022-09-30 15:54:01+00:00,194.0,4.31,200.0,4.76,14.48,47.59359,-54.27349
2022-09-30 16:04:01+00:00,196.0,5.05,198.0,5.91,14.48,47.59359,-54.27349
2022-09-30 16:14:00+00:00,206.0,5.57,206.0,6.08,13.68,47.59359,-54.27349
2022-09-30 16:24:00+00:00,202.0,4.93,209.0,5.59,13.68,47.59359,-54.27349
2022-09-30 16:34:00+00:00,209.0,5.19,208.0,5.59,13.68,47.59359,-54.27349
2022-09-30 16:44:00+00:00,199.0,5.19,202.0,5.69,13.68,47.59359,-54.27349
2022-09-30 16:54:00+00:00,198.0,5.76,198.0,6.59,13.68,47.59359,-54.27349
2022-09-30 17:04:00+00:00,207.0,5.85,207.0,6.29,13.68,47.59359,-54.27349
2022-09-30 17:14:00+00:00,206.0,5.91,207.0,6.38,14.24,47.59359,-54.27349
2022-09-30 17:24:00+00:00,209.0,6.82,209.0,7.72,14.24,47.59359,-54.27349
2022-09-30 17:34:00+00:00,208.0,7.13,209.0,7.98,14.24,47.59359,-54.27349
2022-09-30 17:44:00+00:00,210.0,8.27,211.0,8.68,14.24,47.59359,-54.27349
2022-09-30 17:54:00+00:00,208.0,7.46,208.0,7.95,14.24,47.59359,-54.27349
2022-09-30 18:04:00+00:00,207.0,7.2,206.0,7.83,14.24,47.59359,-54.27349
2022-09-30 19:14:01+00:00,222.0,7.06,231.0,9.25,14.08,47.59359,-54.27349
2022-09-30 19:24:01+00:00,217.0,8.32,226.0,10.5,14.08,47.59359,-54.27349
2022-09-30 19:34:01+00:00,234.0,8.6,242.0,10.94,14.08,47.59359,-54.27349
2022-09-30 19:44:01+00:00,238.0,8.47,244.0,11.08,14.08,47.59359,-54.27349
2022-09-30 19:54:01+00:00,236.0,9.72,240.0,11.29,14.08,47.59359,-54.27349
2022-09-30 20:04:01+00:00,239.0,9.02,239.0,9.91,14.08,47.59359,-54.27349
2022-09-30 20:14:00+00:00,235.0,9.88,235.0,10.75,13.68,47.59359,-54.27349
2022-09-30 20:24:00+00:00,240.0,8.95,245.0,11.04,13.68,47.59359,-54.27349
2022-09-30 20:34:00+00:00,239.0,9.43,243.0,11.53,13.68,47.59359,-54.27349
2022-09-30 20:44:00+00:00,246.0,8.21,247.0,8.85,13.68,47.59359,-54.27349
2022-09-30 20:54:00+00:00,253.0,7.94,257.0,9.72,13.68,47.59359,-54.27349
2022-09-30 21:04:00+00:00,256.0,8.87,258.0,10.38,13.68,47.59359,-54.27349
2022-09-30 21:14:00+00:00,255.0,9.12,256.0,10.91,13.13,47.59359,-54.27349
2022-09-30 21:24:00+00:00,254.0,8.4,259.0,10.72,13.13,47.59359,-54.27349
2022-09-30 21:34:00+00:00,257.0,8.69,257.0,10.74,13.13,47.59359,-54.27349
2022-09-30 21:44:00+00:00,254.0,7.95,256.0,10.23,13.13,47.59359,-54.27349
2022-09-30 21:54:00+00:00,253.0,10.39,251.0,10.94,13.13,47.59359,-54.27349
2022-09-30 22:04:00+00:00,257.0,9.84,258.0,10.71,13.13,47.59359,-54.27349
2022-09-30 22:14:00+00:00,259.0,8.65,262.0,10.65,12.65,47.59359,-54.27349
2022-09-30 22:24:00+00:00,266.0,8.47,267.0,10.53,12.65,47.59359,-54.27349
2022-09-30 22:34:00+00:00,266.0,7.92,266.0,10.26,12.65,47.59359,-54.27349
2022-09-30 22:44:00+00:00,257.0,7.82,260.0,10.32,12.65,47.59359,-54.27349
2022-09-30 22:54:00+00:00,249.0,8.9,255.0,10.5,12.65,47.59359,-54.27349
2022-09-30 23:04:00+00:00,254.0,8.47,254.0,10.32,12.65,47.59359,-54.27349
2022-09-30 23:14:00+00:00,259.0,8.46,259.0,10.13,12.57,47.59359,-54.27349
2022-09-30 23:24:00+00:00,257.0,7.8,262.0,10.0,12.57,47.59359,-54.27349
2022-09-30 23:34:00+00:00,259.0,7.81,261.0,9.81,12.57,47.59359,-54.27349
2022-09-30 23:44:00+00:00,258.0,7.91,264.0,9.19,12.57,47.59359,-54.27349
2022-09-30 23:54:00+00:00,264.0,8.48,263.0,9.22,12.57,47.59359,-54.27349
